Location: C�mpuri de-Sus
(45.9500°N, 22.5500°E)
Time: 00:31:28
(UTC+00:00)

Cosmos 839 Rocket - Pass Details

Date: 03 June 2022
Orbit: 968 x 2085 km, 65.9° (Epoch: 06 July)

Event Time Altitude Azimuth Distance (km) Brightness Sun altitude
Rises 20:19:47 0° 327° (NNW) 3,675 8.9 -15.7°
Reaches altitude 10° 20:22:25 10° 335° (NNW) 2,757 7.7 -16.0°
Maximum altitude 20:28:21 40° 45° (NE) 1,530 5.1 -16.5°
Enters shadow 20:34:24 13° 111° (ESE) 2,921 6.1 -17.0°
